Weather History for UTST - March, 2014

Change the Weather History Date:

Sunday, March 30, 2014

  Actual Average Record
Temperature  
Mean Temperature 65 °F -  
Max Temperature 81 °F - - ()
Min Temperature 49 °F - - ()
Growing Degree Days 15 (Base 50)    
Moisture  
Dew Point 38 °F    
Average Humidity 36    
Maximum Humidity 58    
Minimum Humidity 10    
Precipitation  
Precipitation 0.00 in 0.03 in - ()
Sea Level Pressure  
Sea Level Pressure 29.97 in    
Wind  
Wind Speed 9 mph ()    
Max Wind Speed 16 mph    
Max Gust Speed -    
Visibility 6.1 miles    
Events      
T = Trace of Precipitation, MM = Missing Value Source: Averaged Metar Reports

Daily Weather History Graph

Daily Weather History Graph

Search for Another Location

Airport or City:

Trip Planner

Search our weather history database for the weather conditions in past years. The results will help you decide how hot, cold, wet, or windy it might be!

Date:

Astronomy

Mar. 30, 2014 Rise Set
Actual Time 6:19 AM UZT 6:51 PM UZT
Civil Twilight 5:53 AM UZT 7:17 PM UZT
Nautical Twilight 5:23 AM UZT 7:48 PM UZT
Astronomical Twilight 4:51 AM UZT 8:19 PM UZT
Moon 5:48 AM UZT (3/30) 6:34 PM UZT (3/30)
Length of Visible Light 13h 23m
Length of Day
12h 31m
Waning Crescent, 0% of the Moon is Illuminated
Mar 30
Waning Crescent
Mar 30
New
Apr 7
First Quarter
Apr 15
Full
Apr 22
Last Quarter

Hourly Weather History & Observations

Time (UZT) Temp. Dew Point Humidity Pressure Visibility Wind Dir Wind Speed Gust Speed Precip Events Conditions
12:00 AM 60.8 °F 39.2 °F 45% 30.01 in 6.2 mi ENE 4.5 mph - N/A   Mostly Cloudy
12:30 AM 59.0 °F 39.2 °F 48% 30.01 in 6.2 mi NNE 6.7 mph - N/A   Mostly Cloudy
1:00 AM 60.8 °F 37.4 °F 42% 30.01 in 6.2 mi North 6.7 mph - N/A   Mostly Cloudy
1:30 AM 59.0 °F 37.4 °F 45% 30.01 in 6.2 mi NNE 8.9 mph - N/A   Mostly Cloudy
2:00 AM 60 °F 38 °F 32% 29.99 in 6 mi NNE 11.2 mph - -   Partly Cloudy
2:00 AM 59.0 °F 39.2 °F 48% 29.98 in - NNE 11.2 mph - N/A   Clear
2:30 AM 59.0 °F 39.2 °F 48% 29.98 in - NNE 11.2 mph - N/A   Clear
3:00 AM 57.2 °F 37.4 °F 48% 29.98 in - NE 11.2 mph - N/A   Clear
3:30 AM 57.2 °F 37.4 °F 48% 29.98 in - NNE 8.9 mph - N/A   Clear
4:00 AM 57.2 °F 37.4 °F 48% 29.98 in - NNE 13.4 mph - N/A   Clear
4:30 AM 55.4 °F 39.2 °F 54% 30.01 in - ENE 6.7 mph - N/A   Clear
5:00 AM 54 °F 40 °F 47% 30.02 in 6 mi NE 6.7 mph - -   Partly Cloudy
5:00 AM 53.6 °F 39.2 °F 58% 30.01 in - NE 6.7 mph - N/A   Clear
5:30 AM 53.6 °F 39.2 °F 58% 30.01 in - North 4.5 mph - N/A   Clear
6:00 AM 53.6 °F 39.2 °F 58% 30.01 in - North 6.7 mph - N/A   Clear
6:30 AM 53.6 °F 39.2 °F 58% 30.04 in - NNE 8.9 mph - N/A   Clear
7:00 AM 55.4 °F 39.2 °F 54% 30.04 in - NNE 8.9 mph - N/A   Clear
7:30 AM 57.2 °F 39.2 °F 51% 30.04 in - NNE 11.2 mph - N/A   Clear
8:00 AM 59 °F 38 °F 34% 30.04 in 6 mi NNE 11.2 mph - -   Clear
8:00 AM 60.8 °F 39.2 °F 45% 30.04 in - NNE 8.9 mph - N/A   Clear
8:30 AM 64.4 °F 37.4 °F 37% 30.04 in - NNE 11.2 mph - N/A   Clear
9:00 AM 66.2 °F 39.2 °F 37% 30.04 in - NNE 11.2 mph - N/A   Clear
9:30 AM 69.8 °F 39.2 °F 33% 30.06 in - NE 8.9 mph - N/A   Clear
10:00 AM 71.6 °F 39.2 °F 31% 30.04 in - NNE 8.9 mph - N/A   Clear
10:30 AM 73.4 °F 35.6 °F 25% 30.04 in - ENE 8.9 mph - N/A   Clear
11:00 AM 74 °F 36 °F 15% 30.02 in 6 mi East 11.2 mph - -   Clear
11:00 AM 75.2 °F 35.6 °F 24% 30.04 in - East 11.2 mph - N/A   Clear
11:30 AM 77.0 °F 37.4 °F 24% 30.04 in - East 13.4 mph - N/A   Clear
12:00 PM 77.0 °F 39.2 °F 26% 30.01 in - East 11.2 mph - N/A   Clear
12:30 PM 78.8 °F 35.6 °F 21% 30.01 in - East 11.2 mph - N/A   Clear
1:00 PM 78.8 °F 30.2 °F 17% 30.01 in - ESE 13.4 mph - N/A   Clear
1:30 PM 80.6 °F 32.0 °F 17% 29.98 in - ESE 13.4 mph - N/A   Clear
2:00 PM 80 °F 37 °F 12% 29.92 in 6 mi ESE 15.7 mph - -   Clear
2:00 PM 80.6 °F 33.8 °F 18% 29.95 in - ESE 15.7 mph - N/A   Clear
2:30 PM 80.6 °F 32.0 °F 17% 29.95 in - ESE 15.7 mph - N/A   Clear
3:00 PM 80.6 °F 37.4 °F 21% 29.92 in - East 13.4 mph - N/A   Clear
3:30 PM 80.6 °F 32.0 °F 17% 29.92 in - East 13.4 mph - N/A   Clear
4:00 PM 80.6 °F 33.8 °F 18% 29.92 in - ENE 13.4 mph - N/A   Clear
4:30 PM 80.6 °F 33.8 °F 18% 29.89 in - ENE 11.2 mph - N/A   Clear
5:00 PM 80 °F 33 °F 10% 29.86 in 6 mi ENE 11.2 mph - -  
5:00 PM 78.8 °F 35.6 °F 21% 29.89 in - ENE 13.4 mph - N/A   Clear
5:30 PM 78.8 °F 32.0 °F 18% 29.89 in - ENE 11.2 mph - N/A   Clear
6:00 PM 75.2 °F 35.6 °F 24% 29.89 in - ENE 8.9 mph - N/A   Clear
6:30 PM 73.4 °F 37.4 °F 27% 29.89 in - ENE 6.7 mph - N/A   Clear
7:00 PM 69.8 °F 37.4 °F 31% 29.89 in - ENE 8.9 mph - N/A   Clear
7:30 PM 66.2 °F 39.2 °F 37% 29.89 in - NE 6.7 mph - N/A   Clear
8:00 PM 67 °F 41 °F 27% 29.87 in 6 mi NE 6.7 mph - -   Clear
8:00 PM 62.6 °F 41.0 °F 45% 29.89 in - NE 6.7 mph - N/A   Clear
8:30 PM 62.6 °F 41.0 °F 45% 29.92 in - NE 8.9 mph - N/A   Clear
9:00 PM 62.6 °F 41.0 °F 45% 29.92 in - NE 6.7 mph - N/A   Clear
9:30 PM 60.8 °F 39.2 °F 45% 29.89 in - NE 8.9 mph - N/A   Clear
10:00 PM 60.8 °F 39.2 °F 45% 29.89 in - NE 8.9 mph - N/A   Clear
10:30 PM 59.0 °F 39.2 °F 48% 29.89 in - NNE 6.7 mph - N/A   Clear
11:00 PM 59 °F 42 °F 42% 29.90 in 6 mi North 11.2 mph - -   Clear
11:00 PM 60.8 °F 41.0 °F 48% 29.92 in - North 11.2 mph - N/A   Clear
11:30 PM 59.0 °F 42.8 °F 55% 29.89 in - NE 6.7 mph - N/A   Clear